When you browse on this site, cookies collect data to enhance your experience and personalize the content and advertising you see.
Visit our Privacy Policy to learn more. By continuing to use the site, you agree to this use of cookies and data.
  • In Hungary
  • List of Countries
  • For 7 days
  • Water Temperature
  • Satellite Maps
  • Weather Map
  • News
  • Weather Widgets
  • user-avatar
    Login

    Hourly Weather Isparinsk

    Today, 21 November, Wednesday

    Time Temperature Precipitation Wind Pressure Humidity
    00:00 -7°C° 0 mm 4 mps 744 mmHg 82%
    01:00 -7°C° 0 mm 4 mps 744 mmHg 81%
    02:00 -7°C° 0 mm 5 mps 743 mmHg 80%
    03:00 -7°C° 0 mm 5 mps 743 mmHg 81%
    04:00 -7°C° 0 mm 5 mps 742 mmHg 81%
    05:00 -7°C° 0 mm 5 mps 742 mmHg 81%
    06:00 -7°C° 0 mm 5 mps 741 mmHg 82%
    07:00 -6°C° 0.1 mm 5 mps 741 mmHg 82%
    08:00 -6°C° 0.1 mm 5 mps 740 mmHg 83%
    09:00 -6°C° 0.1 mm 6 mps 740 mmHg 84%
    10:00 -5°C° 0.1 mm 6 mps 740 mmHg 83%
    11:00 -4°C° 0.1 mm 6 mps 739 mmHg 82%
    12:00 -4°C° 0.1 mm 6 mps 739 mmHg 81%
    13:00 -4°C° 0.1 mm 6 mps 739 mmHg 78%
    14:00 -5°C° 0.1 mm 6 mps 739 mmHg 74%
    15:00 -5°C° 0.1 mm 6 mps 739 mmHg 70%
    16:00 -6°C° 0 mm 6 mps 740 mmHg 71%
    17:00 -8°C° 0 mm 6 mps 740 mmHg 71%
    18:00 -8°C° 0 mm 6 mps 741 mmHg 72%
    19:00 -9°C° 0 mm 6 mps 741 mmHg 74%
    20:00 -8°C° 0 mm 5 mps 741 mmHg 77%
    21:00 -8°C° 0 mm 5 mps 741 mmHg 79%
    22:00 -10°C° 0 mm 5 mps 741 mmHg 81%
    23:00 -10°C° 0 mm 5 mps 741 mmHg 83%

    Tomorrow, 22 November, Thursday

    Time Temperature Precipitation Wind Pressure Humidity
    00:00 -9°C° 0 mm 4 mps 741 mmHg 85%
    01:00 -9°C° 0 mm 4 mps 740 mmHg 86%
    02:00 -9°C° 0 mm 4 mps 740 mmHg 88%
    03:00 -9°C° 0 mm 4 mps 740 mmHg 89%
    04:00 -9°C° 0.1 mm 4 mps 739 mmHg 89%
    05:00 -8°C° 0.1 mm 5 mps 739 mmHg 88%
    06:00 -8°C° 0.1 mm 5 mps 738 mmHg 87%
    07:00 -7°C° 0.1 mm 5 mps 738 mmHg 86%
    08:00 -7°C° 0.1 mm 5 mps 737 mmHg 85%
    09:00 -7°C° 0.1 mm 5 mps 736 mmHg 84%
    10:00 -6°C° 0.3 mm 6 mps 736 mmHg 84%
    11:00 -6°C° 0.3 mm 6 mps 735 mmHg 85%
    12:00 -6°C° 0.3 mm 6 mps 734 mmHg 86%
    13:00 -6°C° 0.3 mm 6 mps 734 mmHg 85%
    14:00 -6°C° 0.3 mm 6 mps 733 mmHg 85%
    15:00 -6°C° 0.3 mm 6 mps 732 mmHg 85%
    16:00 -6°C° 0.4 mm 6 mps 731 mmHg 86%
    17:00 -6°C° 0.4 mm 6 mps 731 mmHg 87%
    18:00 -6°C° 0.4 mm 6 mps 730 mmHg 89%
    19:00 -6°C° 0.5 mm 6 mps 729 mmHg 87%
    20:00 -6°C° 0.5 mm 7 mps 729 mmHg 86%
    21:00 -6°C° 0.5 mm 7 mps 728 mmHg 85%
    22:00 -7°C° 0.1 mm 8 mps 728 mmHg 84%
    23:00 -8°C° 0.1 mm 8 mps 728 mmHg 83%

    Day after tomorrow, 23 November, Friday

    Time Temperature Precipitation Wind Pressure Humidity
    00:00 -8°C° 0.1 mm 8 mps 728 mmHg 81%
    01:00 -10°C° 0.1 mm 8 mps 729 mmHg 80%
    02:00 -10°C° 0.1 mm 8 mps 730 mmHg 78%
    03:00 -11°C° 0.1 mm 7 mps 731 mmHg 77%
    04:00 -11°C° 0 mm 7 mps 732 mmHg 78%
    05:00 -12°C° 0 mm 7 mps 732 mmHg 79%
    06:00 -12°C° 0 mm 7 mps 733 mmHg 80%
    07:00 -12°C° 0 mm 7 mps 734 mmHg 79%
    08:00 -12°C° 0 mm 8 mps 736 mmHg 77%
    09:00 -12°C° 0 mm 8 mps 737 mmHg 76%
    10:00 -12°C° 0 mm 8 mps 738 mmHg 75%
    11:00 -12°C° 0 mm 8 mps 739 mmHg 74%
    12:00 -12°C° 0 mm 8 mps 740 mmHg 73%
    13:00 -12°C° 0 mm 7 mps 741 mmHg 74%
    14:00 -12°C° 0 mm 7 mps 742 mmHg 76%
    15:00 -11°C° 0 mm 6 mps 743 mmHg 78%
    16:00 -12°C° 0 mm 6 mps 743 mmHg 79%
    17:00 -12°C° 0 mm 5 mps 744 mmHg 79%
    18:00 -12°C° 0 mm 5 mps 744 mmHg 80%
    19:00 -12°C° 0 mm 5 mps 745 mmHg 83%
    20:00 -11°C° 0 mm 4 mps 745 mmHg 85%
    21:00 -12°C° 0 mm 4 mps 745 mmHg 87%
    22:00 -11°C° 0 mm 4 mps 745 mmHg 87%
    23:00 -11°C° 0 mm 4 mps 745 mmHg 88%

    24 November, Saturday

    Time Temperature Precipitation Wind Pressure Humidity
    00:00 -11°C° 0 mm 4 mps 745 mmHg 88%
    01:00 -11°C° 0.1 mm 4 mps 745 mmHg 88%
    02:00 -11°C° 0.1 mm 4 mps 745 mmHg 87%
    03:00 -10°C° 0.1 mm 4 mps 745 mmHg 86%
    04:00 -10°C° 0 mm 4 mps 745 mmHg 87%
    05:00 -10°C° 0 mm 4 mps 745 mmHg 87%
    06:00 -12°C° 0 mm 5 mps 744 mmHg 87%
    07:00 -11°C° 0 mm 5 mps 744 mmHg 87%
    08:00 -11°C° 0 mm 5 mps 744 mmHg 86%
    09:00 -11°C° 0 mm 6 mps 744 mmHg 86%
    10:00 -10°C° 0 mm 6 mps 743 mmHg 85%
    11:00 -10°C° 0 mm 6 mps 743 mmHg 84%
    12:00 -9°C° 0 mm 7 mps 742 mmHg 83%
    13:00 -9°C° 0.1 mm 6 mps 742 mmHg 83%
    14:00 -8°C° 0.1 mm 6 mps 742 mmHg 83%
    15:00 -8°C° 0.1 mm 6 mps 742 mmHg 83%
    16:00 -8°C° 0.1 mm 6 mps 741 mmHg 83%
    17:00 -8°C° 0.1 mm 6 mps 741 mmHg 83%
    18:00 -8°C° 0.1 mm 6 mps 741 mmHg 84%
    19:00 -8°C° 0 mm 6 mps 741 mmHg 84%
    20:00 -8°C° 0 mm 6 mps 741 mmHg 84%
    21:00 -6°C° 0 mm 6 mps 740 mmHg 84%
    22:00 -6°C° 0 mm 6 mps 740 mmHg 85%
    23:00 -6°C° 0 mm 6 mps 740 mmHg 85%

    25 November, Sunday

    Time Temperature Precipitation Wind Pressure Humidity
    00:00 -6°C° 0 mm 6 mps 740 mmHg 85%
    01:00 -6°C° 0.1 mm 6 mps 740 mmHg 85%
    02:00 -6°C° 0.1 mm 6 mps 740 mmHg 85%
    03:00 -6°C° 0.1 mm 6 mps 740 mmHg 85%
    04:00 -6°C° 0.1 mm 6 mps 740 mmHg 85%
    05:00 -6°C° 0.1 mm 6 mps 740 mmHg 85%
    06:00 -6°C° 0.1 mm 6 mps 740 mmHg 85%
    07:00 -6°C° 0 mm 6 mps 741 mmHg 85%
    08:00 -6°C° 0 mm 5 mps 741 mmHg 85%
    09:00 -6°C° 0 mm 5 mps 742 mmHg 84%
    10:00 -6°C° 0 mm 5 mps 742 mmHg 84%
    11:00 -5°C° 0 mm 5 mps 743 mmHg 83%
    12:00 -4°C° 0 mm 4 mps 743 mmHg 83%
    13:00 -5°C° 0 mm 4 mps 743 mmHg 85%
    14:00 -5°C° 0 mm 3 mps 744 mmHg 87%
    15:00 -6°C° 0 mm 3 mps 744 mmHg 89%
    16:00 -5°C° 0 mm 2 mps 744 mmHg 91%
    17:00 -6°C° 0 mm 2 mps 745 mmHg 92%
    18:00 -7°C° 0 mm 2 mps 745 mmHg 94%
    19:00 -7°C° 0 mm 2 mps 745 mmHg 95%
    20:00 -7°C° 0 mm 2 mps 745 mmHg 95%
    21:00 -7°C° 0 mm 1 mps 745 mmHg 96%
    22:00 -6°C° 0 mm 1 mps 745 mmHg 96%
    23:00 -6°C° 0 mm 1 mps 745 mmHg 96%

    26 November, Monday

    Time Temperature Precipitation Wind Pressure Humidity
    00:00 -6°C° 0 mm 1 mps 744 mmHg 96%
    01:00 -7°C° 0 mm 2 mps 744 mmHg 96%
    02:00 -7°C° 0 mm 2 mps 744 mmHg 96%
    03:00 -7°C° 0 mm 2 mps 743 mmHg 96%
    04:00 -6°C° 0.3 mm 2 mps 743 mmHg 96%
    05:00 -6°C° 0.3 mm 2 mps 742 mmHg 96%
    06:00 -6°C° 0.3 mm 3 mps 742 mmHg 96%
    07:00 -6°C° 0.4 mm 3 mps 742 mmHg 95%
    08:00 -6°C° 0.4 mm 3 mps 741 mmHg 95%
    09:00 -5°C° 0.4 mm 4 mps 741 mmHg 94%
    10:00 -5°C° 0.5 mm 4 mps 740 mmHg 94%
    11:00 -5°C° 0.5 mm 4 mps 740 mmHg 93%
    12:00 -5°C° 0.5 mm 4 mps 739 mmHg 93%
    13:00 -5°C° 0.5 mm 4 mps 739 mmHg 93%
    14:00 -5°C° 0.5 mm 4 mps 739 mmHg 94%
    15:00 -5°C° 0.5 mm 4 mps 738 mmHg 94%
    16:00 -5°C° 0.5 mm 4 mps 738 mmHg 94%
    17:00 -5°C° 0.5 mm 3 mps 737 mmHg 95%
    18:00 -5°C° 0.5 mm 3 mps 737 mmHg 95%
    19:00 -5°C° 0.3 mm 3 mps 737 mmHg 95%
    20:00 -4°C° 0.3 mm 3 mps 736 mmHg 95%
    21:00 -4°C° 0.3 mm 3 mps 736 mmHg 95%
    22:00 -4°C° 0.2 mm 3 mps 736 mmHg 95%
    23:00 -4°C° 0.2 mm 3 mps 736 mmHg 95%
    Show more